| time (UTC) | temp F | wind direction | speed knots | gust knots | rain 1hr in | rain 24hr in | rain mn in | humidity % | barometer mb |
| 20260504211548 | 62 | 226 | 6.1 | 8.7 | 0.00 | 0.02 | 0.02 | 55 | 1003.6 |
| 20260504210045 | 61 | 216 | 6.1 | 8.7 | 0.00 | 0.02 | 0.02 | 56 | 1003.9 |
| 20260504204544 | 61 | 249 | 7.0 | 13.9 | 0.00 | 0.02 | 0.02 | 55 | 1003.8 |
| 20260504203044 | 61 | 270 | 7.0 | 11.3 | 0.00 | 0.02 | 0.02 | 56 | 1004.0 |
| 20260504201539 | 61 | 253 | 7.0 | 8.7 | 0.00 | 0.02 | 0.02 | 55 | 1003.8 |
| 20260504200036 | 60 | 256 | 11.3 | 13.0 | 0.00 | 0.02 | 0.02 | 57 | 1003.8 |
| 20260504194531 | 60 | 253 | 11.3 | 15.6 | 0.00 | 0.02 | 0.02 | 59 | 1003.6 |
| 20260504193028 | 59 | 266 | 7.0 | 13.9 | 0.00 | 0.02 | 0.02 | 59 | 1004.0 |
| 20260504191527 | 59 | 218 | 6.1 | 9.6 | 0.00 | 0.02 | 0.02 | 63 | 1003.8 |
| 20260504190026 | 58 | 207 | 6.1 | 7.8 | 0.00 | 0.02 | 0.02 | 64 | 1004.0 |
| 20260504184521 | 57 | 173 | 4.3 | 7.0 | 0.00 | 0.02 | 0.02 | 66 | 1004.3 |
| 20260504183019 | 57 | 233 | 1.7 | 11.3 | 0.00 | 0.02 | 0.02 | 66 | 1004.5 |
| 20260504181515 | 56 | 258 | 7.8 | 14.8 | 0.00 | 0.02 | 0.02 | 69 | 1004.8 |
| 20260504180010 | 56 | 242 | 8.7 | 11.3 | 0.00 | 0.02 | 0.02 | 65 | 1004.6 |
| 20260504174508 | 53 | 251 | 9.6 | 14.8 | 0.00 | 0.02 | 0.02 | 77 | 1004.5 |
| 20260504173005 | 53 | 245 | 7.0 | 11.3 | 0.00 | 0.02 | 0.02 | 82 | 1004.6 |
| 20260504171500 | 51 | 245 | 2.6 | 2.6 | 0.00 | 0.02 | 0.02 | 87 | 1004.6 |
| 20260504081302 | 31 | 149 | 0.0 | 0.0 | 0.00 | 0.00 | 0.00 | 99 | 1006.2 |
| 20260504045721 | 34 | 148 | 0.0 | 0.9 | 0.00 | 0.00 | 0.00 | 89 | 1005.7 |
| 20260504044216 | 34 | 148 | 0.9 | 0.9 | 0.00 | 0.00 | 0.00 | 87 | 1005.6 |
| 20260504042714 | 34 | 149 | 0.0 | 0.9 | 0.00 | 0.00 | 0.00 | 86 | 1005.8 |
| 20260504041214 | 35 | 138 | 0.9 | 0.9 | 0.00 | 0.00 | 0.00 | 85 | 1005.7 |
| 20260504035710 | 36 | 138 | 0.0 | 0.9 | 0.00 | 0.00 | 0.00 | 84 | 1005.7 |
| 20260504034208 | 36 | 137 | 0.9 | 1.7 | 0.00 | 0.00 | 0.00 | 80 | 1005.5 |
| 20260504032705 | 38 | 132 | 0.9 | 1.7 | 0.00 | 0.00 | 0.00 | 79 | 1005.5 |
| 20260504031201 | 39 | 153 | 0.9 | 0.9 | 0.00 | 0.00 | 0.00 | 75 | 1005.5 |
| 20260504025657 | 40 | 126 | 0.9 | 2.6 | 0.00 | 0.00 | 0.00 | 70 | 1005.4 |
| 20260504024153 | 41 | 123 | 1.7 | 1.7 | 0.00 | 0.00 | 0.00 | 69 | 1005.4 |
| 20260504022648 | 42 | 155 | 0.9 | 2.6 | 0.00 | 0.00 | 0.00 | 69 | 1005.2 |
| 20260504021145 | 41 | 143 | 1.7 | 1.7 | 0.00 | 0.00 | 0.00 | 68 | 1005.3 |
| 20260504015640 | 41 | 114 | 0.9 | 1.7 | 0.00 | 0.00 | 0.00 | 68 | 1005.4 |
| 20260504014136 | 43 | 134 | 0.0 | 0.9 | 0.00 | 0.00 | 0.00 | 64 | 1005.4 |
| 20260504012633 | 43 | 172 | 0.0 | 0.9 | 0.00 | 0.00 | 0.00 | 61 | 1005.3 |
| 20260504011130 | 45 | 244 | 0.9 | 4.3 | 0.00 | 0.00 | 0.00 | 58 | 1005.1 |
| 20260504005631 | 45 | 223 | 0.9 | 6.1 | 0.00 | 0.00 | 0.00 | 56 | 1004.9 |
| 20260504004128 | 45 | 306 | 5.2 | 7.0 | 0.00 | 0.00 | 0.00 | 58 | 1004.9 |
| 20260504002624 | 46 | 259 | 5.2 | 6.1 | 0.00 | 0.00 | 0.00 | 57 | 1004.5 |
| 20260504001120 | 46 | 298 | 5.2 | 7.8 | 0.00 | 0.00 | 0.00 | 55 | 1004.5 |
| 20260503235620 | 46 | 253 | 6.1 | 7.8 | 0.00 | 0.00 | 0.00 | 54 | 1004.4 |
| 20260503234118 | 47 | 256 | 7.8 | 13.0 | 0.00 | 0.00 | 0.00 | 54 | 1004.1 |
| 20260503232613 | 47 | 319 | 4.3 | 6.1 | 0.00 | 0.00 | 0.00 | 52 | 1003.6 |
| 20260503231110 | 48 | 356 | 1.7 | 7.0 | 0.00 | 0.00 | 0.00 | 52 | 1003.6 |
| 20260503225608 | 48 | 346 | 4.3 | 12.2 | 0.00 | 0.00 | 0.00 | 54 | 1003.5 |
| 20260503224103 | 48 | 321 | 8.7 | 12.2 | 0.00 | 0.00 | 0.00 | 50 | 1003.4 |
| 20260503222600 | 49 | 277 | 10.4 | 13.9 | 0.00 | 0.00 | 0.00 | 50 | 1003.2 |
| 20260503221058 | 48 | 299 | 4.3 | 13.0 | 0.00 | 0.00 | 0.00 | 48 | 1003.3 |
| 20260503215555 | 50 | 331 | 7.8 | 13.0 | 0.00 | 0.00 | 0.00 | 47 | 1003.3 |
| 20260503214052 | 48 | 255 | 10.4 | 13.9 | 0.00 | 0.00 | 0.00 | 49 | 1003.1 |
| 20260503212550 | 49 | 287 | 9.6 | 11.3 | 0.00 | 0.00 | 0.00 | 48 | 1002.8 |